Home > Weather > Fresno > Past weeks

Flag for USA Past Weather in Fresno, California, USA — Yesterday and Last 2 Weeks

Now
89 °F

Clear.


Feels Like: 86 °F
Forecast: 69 / 103 °F
Wind: 12 mph from Northwest

Location: Fresno Air Terminal

Current Time: Jul 1, 2016 at 10:46:22 PM

Latest Report: Jul 1, 2016 at 9:53 PM


Visibility: 10 mi

Pressure: 29.77 "Hg

Humidity: 26%

Dew Point: 50 °F

Location of FresnoLocation

Past Weather in Fresno — Graph

°F

Fresno Temperature Yesterday

Maximum temperature yesterday: 103 °F (at 3:53 PM)
Minimum temperature yesterday: 69 °F (at 4:53 AM)
Average temperature yesterday: 86 °F

High & Low Weather Summary for the Past Weeks

 TemperatureHumidityPressure
High107 °F (Jun 28, 4:53 PM)72% (Jun 17, 5:53 AM)30.14 "Hg (Jun 17, 5:53 AM)
Low58 °F (Jun 17, 5:53 AM)4% (Jun 23, 5:53 PM)29.70 "Hg (Jun 30, 5:53 PM)
Average84 °F30%29.91 "Hg
* Reported Jun 16 9:53 PM — Jul 1 9:53 PM, Fresno, Weather by CustomWeather, © 2016

Note: Actual official high and low records may vary slightly from our data, if they occured in-between our weather recording intervals... More about our weather records

Advertising

Fresno Weather History for the Previous 24 Hours

Scroll right to see more
 ConditionsComfort  
Time TempWeatherWind HumidityBarometerVisibility
9:53 PM
Fri, Jul 1
89 °FClear.12 mph26%29.77 "Hg10 mi
8:53 PM91 °FPassing clouds.12 mph23%29.74 "Hg10 mi
7:53 PM98 °FPassing clouds.14 mph15%29.73 "Hg10 mi
6:53 PM101 °FPassing clouds.14 mph13%29.71 "Hg10 mi
5:53 PM104 °FPassing clouds.12 mph12%29.71 "Hg10 mi
4:53 PM105 °FPassing clouds.12 mph12%29.72 "Hg10 mi
3:53 PM105 °FPassing clouds.7 mph12%29.73 "Hg10 mi
2:53 PM105 °FPassing clouds.3 mph12%29.75 "Hg10 mi
1:53 PM101 °FPassing clouds.3 mph13%29.77 "Hg10 mi
12:53 PM99 °FPassing clouds.3 mph18%29.80 "Hg10 mi
11:53 AM94 °FPassing clouds.3 mph24%29.81 "Hg10 mi
10:53 AM90 °FSunny.5 mph31%29.81 "Hg10 mi
9:53 AM87 °FSunny.7 mph32%29.81 "Hg10 mi
8:53 AM83 °FSunny.8 mph37%29.80 "Hg10 mi
7:53 AM80 °FSunny.5 mph36%29.80 "Hg10 mi
6:53 AM74 °FPassing clouds.3 mph52%29.78 "Hg10 mi
5:53 AM72 °FPassing clouds.No wind57%29.77 "Hg10 mi
4:53 AM72 °FPassing clouds.3 mph57%29.75 "Hg10 mi
3:53 AM73 °FPassing clouds.3 mph55%29.74 "Hg10 mi
2:53 AM75 °FPassing clouds.7 mph50%29.73 "Hg10 mi
1:53 AM77 °FPassing clouds.5 mph47%29.74 "Hg10 mi
12:53 AM80 °FPassing clouds.10 mph39%29.73 "Hg10 mi
11:53 PM
Thu, Jun 30
84 °FPassing clouds.8 mph33%29.73 "Hg10 mi
10:53 PM86 °FClear.7 mph28%29.73 "Hg10 mi
Weather by CustomWeather, © 2016

See weather overviewHow to use our weather pages